This is the latest recevied weather packets stored in our database for station/object DL3CSM-13. If no packets are shown the sender has not sent any weather packets the latest 10 day(s).
| Time | Temp. | Humidity | Pressure | Rain* | Wind** | Luminosity | Snow |
|---|---|---|---|---|---|---|---|
| 1777427111 | 10.56° C | 52% | 1019.5 hPa | 0 mm | - | - | - |
| 1777426211 | 11.11° C | 51% | 1019.3 hPa | 0 mm | - | - | - |
| 1777425311 | 11.11° C | 50% | 1019.5 hPa | 0 mm | - | - | - |
| 1777424411 | 11.11° C | 50% | 1019.5 hPa | 0 mm | - | - | - |
| 1777422611 | 11.67° C | 49% | 1019.4 hPa | 0 mm | - | - | - |
| 1777421711 | 11.67° C | 49% | 1019.4 hPa | 0 mm | - | - | - |
| 1777419911 | 12.22° C | 47% | 1019.4 hPa | 0 mm | - | - | - |
| 1777419011 | 12.22° C | 47% | 1019.5 hPa | 0 mm | - | - | - |
| 1777418111 | 12.22° C | 48% | 1019.5 hPa | 0 mm | - | - | - |
| 1777417211 | 12.22° C | 47% | 1019.4 hPa | 0 mm | - | - | - |
| 1777416312 | 12.78° C | 46% | 1019.3 hPa | 0 mm | - | - | - |
| 1777415411 | 12.78° C | 45% | 1019.2 hPa | 0 mm | - | - | - |
| 1777414511 | 12.78° C | 45% | 1019.2 hPa | 0 mm | - | - | - |
| 1777413611 | 13.33° C | 45% | 1019.1 hPa | 0 mm | - | - | - |
| 1777410911 | 13.89° C | 44% | 1018.9 hPa | 0 mm | - | - | - |
| 1777410011 | 13.89° C | 43% | 1018.8 hPa | 0 mm | - | - | - |
| 1777408211 | 14.44° C | 42% | 1018.4 hPa | 0 mm | - | - | - |
| 1777407311 | 14.44° C | 42% | 1018.5 hPa | 0 mm | - | - | - |
| 1777406411 | 14.44° C | 42% | 1018.5 hPa | 0 mm | - | - | - |
| 1777405512 | 15° C | 40% | 1018.3 hPa | 0 mm | - | - | - |
| 1777403711 | 15.56° C | 39% | 1018.2 hPa | 0 mm | - | - | - |
| 1777402811 | 15.56° C | 38% | 1018 hPa | 0 mm | - | - | - |
| 1777401911 | 16.11° C | 37% | 1017.9 hPa | 0 mm | - | - | - |
| 1777401011 | 16.67° C | 37% | 1017.9 hPa | 0 mm | - | - | - |
| 1777400111 | 16.67° C | 35% | 1017.7 hPa | 0 mm | - | - | - |
* Rain latest hour (hover to see other rain measurements)
** Current wind speed in m/s (hover to see current wind gust speed)